Volver al catálogo

STARLINK-5435

ActivoComunicacionesVLEO
NORAD 54797·PAYLOAD·🇺🇸 United States

Lanzado Dec 17, 2022 desde Cape Canaveral Space Force Station

Loading…

Próximos Pases (próximas 24 horas)

TLE

ActualizadoSource: CelesTrak SupGP

Época: Sep 15, 2026, 02:25 UTC

1 54797C 22175AR  26258.10118056 -.00023467  00000+0 -69330-3 0  2589
2 54797  53.1585 263.1542 0001447  91.4229  19.4300 15.34403596    15

Sigue STARLINK-5435 en tiempo real con AllMySat

Download on the App Store